DLH160 EDDH-EDXW

Flight info

Callsign DLH160
Flight time 0h 24m
Altitude 20000
Route SOKWO1G SOKWO T814 EXNEL DCT OLDIP DCT
Aircraft A20N/M-SDE2E3FGHIJ1RWXY/LB1

Departure

Time 2026-05-06 17:37
Airport Hamburg Helmut Schmidt Airport (EDDH)

Arrival

Time 2026-05-06 18:01
Airport Westerland Sylt Airport (EDXW)
Time Latitude Longitude Altitude Speed Heading
2026-05-06 16:56 53.63374 10.00337 49 ft 0 kts 86°
2026-05-06 17:24 53.63374 10.00335 49 ft 0 kts 86°
2026-05-06 17:25 53.63373 10.00309 46 ft 3 kts 86°
2026-05-06 17:25 53.63371 10.00277 44 ft 3 kts 86°
2026-05-06 17:26 53.63368 10.00247 46 ft 3 kts 83°
2026-05-06 17:26 53.63366 10.00217 47 ft 3 kts 83°
2026-05-06 17:26 53.63364 10.00186 49 ft 3 kts 83°
2026-05-06 17:26 53.63366 10.00159 47 ft 2 kts 141°
2026-05-06 17:27 53.63370 10.00153 49 ft 0 kts 165°
2026-05-06 17:30 53.63361 10.00156 46 ft 5 kts 167°
2026-05-06 17:30 53.63299 10.00171 49 ft 11 kts 174°
2026-05-06 17:30 53.63219 10.00180 49 ft 12 kts 176°
2026-05-06 17:30 53.63155 10.00187 47 ft 9 kts 174°
2026-05-06 17:31 53.63094 10.00194 48 ft 9 kts 187°
2026-05-06 17:31 53.63040 10.00141 48 ft 9 kts 218°
2026-05-06 17:31 53.62982 10.00084 45 ft 10 kts 208°
2026-05-06 17:31 53.62926 10.00003 49 ft 11 kts 238°
2026-05-06 17:32 53.62905 9.99941 49 ft 0 kts 241°
2026-05-06 17:34 53.62903 9.99934 49 ft 4 kts 242°
2026-05-06 17:34 53.62882 9.99867 50 ft 12 kts 243°
2026-05-06 17:35 53.62861 9.99750 50 ft 9 kts 295°
2026-05-06 17:35 53.62886 9.99722 50 ft 0 kts 334°
2026-05-06 17:36 53.62891 9.99718 50 ft 10 kts 334°
2026-05-06 17:36 53.63192 9.99463 48 ft 85 kts 333°
2026-05-06 17:36 53.63925 9.98830 45 ft 150 kts 333°
2026-05-06 17:36 53.64884 9.97973 542 ft 156 kts 336°
2026-05-06 17:37 53.65854 9.97141 1270 ft 156 kts 339°
2026-05-06 17:37 53.66898 9.96283 1844 ft 181 kts 340°
2026-05-06 17:37 53.68107 9.95300 2339 ft 204 kts 342°
2026-05-06 17:37 53.69510 9.94719 2760 ft 208 kts 359°
2026-05-06 17:38 53.70951 9.94628 3143 ft 208 kts
2026-05-06 17:38 53.72404 9.94656 3522 ft 209 kts
2026-05-06 17:38 53.73808 9.95165 3814 ft 208 kts 26°
2026-05-06 17:38 53.75172 9.96429 4111 ft 237 kts 34°
2026-05-06 17:39 53.76596 9.97984 4387 ft 248 kts 35°
2026-05-06 17:39 53.78026 9.99576 4652 ft 250 kts 34°
2026-05-06 17:39 53.79489 10.01197 4901 ft 253 kts 34°
2026-05-06 17:39 53.80965 10.02824 4999 ft 254 kts 34°
2026-05-06 17:40 53.82448 10.04455 4990 ft 254 kts 34°
2026-05-06 17:40 53.83935 10.06085 4992 ft 255 kts 35°
2026-05-06 17:40 53.85423 10.07719 4996 ft 255 kts 35°
2026-05-06 17:40 53.86918 10.09343 5087 ft 257 kts 33°
2026-05-06 17:41 53.88556 10.10653 5788 ft 263 kts 20°
2026-05-06 17:41 53.90354 10.11220 6877 ft 265 kts
2026-05-06 17:41 53.92173 10.10955 7865 ft 267 kts 351°
2026-05-06 17:41 53.93993 10.10262 8515 ft 270 kts 348°
2026-05-06 17:42 53.95825 10.09468 8849 ft 273 kts 347°
2026-05-06 17:42 53.97668 10.08661 9120 ft 273 kts 347°
2026-05-06 17:42 53.99514 10.07861 9381 ft 274 kts 346°
2026-05-06 17:42 54.01361 10.07068 9657 ft 273 kts 346°
2026-05-06 17:43 54.03215 10.06277 9913 ft 275 kts 346°
2026-05-06 17:43 54.05102 10.05479 10213 ft 289 kts 346°
2026-05-06 17:43 54.07124 10.04535 10623 ft 312 kts 340°
2026-05-06 17:43 54.09081 10.02750 11277 ft 327 kts 322°
2026-05-06 17:44 54.10737 10.00060 12221 ft 332 kts 311°
2026-05-06 17:44 54.12206 9.96995 13216 ft 336 kts 306°
2026-05-06 17:44 54.13544 9.93767 14124 ft 340 kts 303°
2026-05-06 17:44 54.14858 9.90374 14938 ft 346 kts 301°
2026-05-06 17:45 54.16181 9.86894 15736 ft 353 kts 301°
2026-05-06 17:45 54.17532 9.83361 16528 ft 359 kts 301°
2026-05-06 17:45 54.18919 9.79788 17326 ft 364 kts 301°
2026-05-06 17:45 54.20342 9.76168 18077 ft 370 kts 302°
2026-05-06 17:46 54.21790 9.72520 18461 ft 372 kts 302°
2026-05-06 17:46 54.23249 9.68861 18702 ft 374 kts 302°
2026-05-06 17:46 54.24720 9.65176 18943 ft 375 kts 302°
2026-05-06 17:46 54.26192 9.61486 19185 ft 376 kts 302°
2026-05-06 17:47 54.27668 9.57779 19433 ft 378 kts 302°
2026-05-06 17:47 54.29126 9.54107 19681 ft 378 kts 302°
2026-05-06 17:47 54.30605 9.50375 19857 ft 379 kts 302°
2026-05-06 17:47 54.32082 9.46641 19885 ft 380 kts 302°
2026-05-06 17:48 54.33563 9.42889 19884 ft 380 kts 302°
2026-05-06 17:48 54.35044 9.39131 19884 ft 380 kts 302°
2026-05-06 17:48 54.36523 9.35374 19896 ft 380 kts 302°
2026-05-06 17:48 54.37994 9.31637 19529 ft 376 kts 302°
2026-05-06 17:49 54.39445 9.27941 19084 ft 371 kts 302°
2026-05-06 17:49 54.40877 9.24290 18636 ft 365 kts 301°
2026-05-06 17:49 54.42283 9.20697 17870 ft 361 kts 301°
2026-05-06 17:49 54.43676 9.17131 17028 ft 358 kts 301°
2026-05-06 17:50 54.45032 9.13653 16356 ft 351 kts 302°
2026-05-06 17:50 54.46361 9.10242 15846 ft 339 kts 302°
2026-05-06 17:50 54.47664 9.06892 15108 ft 335 kts 302°
2026-05-06 17:50 54.48956 9.03563 14338 ft 334 kts 302°
2026-05-06 17:51 54.50239 9.00256 13591 ft 331 kts 303°
2026-05-06 17:51 54.51507 8.96979 12781 ft 328 kts 303°
2026-05-06 17:51 54.52761 8.93740 12186 ft 320 kts 303°
2026-05-06 17:51 54.53960 8.90638 11876 ft 304 kts 303°
2026-05-06 17:52 54.55108 8.87663 11452 ft 294 kts 303°
2026-05-06 17:52 54.56229 8.84753 10940 ft 288 kts 303°
2026-05-06 17:52 54.57243 8.81802 10390 ft 286 kts 297°
2026-05-06 17:52 54.58095 8.78761 9778 ft 285 kts 296°
2026-05-06 17:53 54.58998 8.75721 9099 ft 284 kts 299°
2026-05-06 17:53 54.60063 8.72883 8479 ft 281 kts 311°
2026-05-06 17:53 54.61475 8.70609 7891 ft 276 kts 325°
2026-05-06 17:53 54.63030 8.68708 7304 ft 273 kts 326°
2026-05-06 17:54 54.64597 8.66847 6611 ft 274 kts 328°
2026-05-06 17:54 54.66191 8.65011 5880 ft 276 kts 329°
2026-05-06 17:54 54.67747 8.63106 5316 ft 272 kts 327°
2026-05-06 17:54 54.69256 8.61223 4924 ft 262 kts 327°
2026-05-06 17:55 54.70711 8.59440 4599 ft 250 kts 327°
2026-05-06 17:55 54.72080 8.57766 4351 ft 238 kts 328°
2026-05-06 17:55 54.73399 8.56147 4144 ft 226 kts 327°
2026-05-06 17:55 54.74650 8.54609 3924 ft 216 kts 329°
2026-05-06 17:56 54.75860 8.53124 3618 ft 211 kts 329°
2026-05-06 17:56 54.77045 8.51667 3313 ft 205 kts 327°
2026-05-06 17:56 54.78179 8.50271 3013 ft 196 kts 327°
2026-05-06 17:56 54.79277 8.48920 2755 ft 190 kts 328°
2026-05-06 17:57 54.80337 8.47615 2507 ft 184 kts 327°
2026-05-06 17:57 54.81359 8.46355 2265 ft 177 kts 328°
2026-05-06 17:57 54.82332 8.45154 2019 ft 165 kts 328°
2026-05-06 17:57 54.83213 8.44065 1851 ft 149 kts 330°
2026-05-06 17:58 54.84024 8.43066 1616 ft 137 kts 330°
2026-05-06 17:58 54.84766 8.42147 1455 ft 127 kts 331°
2026-05-06 17:58 54.85481 8.41268 1286 ft 125 kts 331°
2026-05-06 17:58 54.86187 8.40410 1123 ft 123 kts 330°
2026-05-06 17:59 54.86877 8.39547 950 ft 121 kts 328°
2026-05-06 17:59 54.87550 8.38715 757 ft 116 kts 329°
2026-05-06 17:59 54.88200 8.37902 619 ft 115 kts 328°
2026-05-06 17:59 54.88843 8.37096 457 ft 113 kts 329°
2026-05-06 18:00 54.89488 8.36313 303 ft 112 kts 331°
2026-05-06 18:00 54.90121 8.35523 136 ft 111 kts 329°
2026-05-06 18:00 54.90734 8.34772 43 ft 101 kts 328°
2026-05-06 18:00 54.91182 8.34222 48 ft 55 kts 324°
2026-05-06 18:01 54.91430 8.33915 45 ft 40 kts 324°
2026-05-06 18:01 54.91653 8.33639 47 ft 38 kts 324°
2026-05-06 18:01 54.91812 8.33431 46 ft 24 kts 323°
2026-05-06 18:01 54.91922 8.33339 45 ft 16 kts 17°
2026-05-06 18:02 54.91958 8.33511 42 ft 17 kts 86°
2026-05-06 18:02 54.91975 8.33666 43 ft 10 kts 63°
2026-05-06 18:02 54.92006 8.33749 48 ft 6 kts 46°
2026-05-06 18:02 54.92021 8.33801 49 ft 5 kts 80°
2026-05-06 18:03 54.92023 8.33864 50 ft 5 kts 87°
2026-05-06 18:03 54.92024 8.33875 50 ft 0 kts 87°